N0WXR Weather Reports


Display with metric or nautical units.
time (UTC)temp
F
wind
direction
speed
MPH
gust
MPH
rain 1hr
in
rain 24hr
in
rain mn
in
humidity
%
barometer
mb
20260505013953 62 149 0.0 0.0 0.00 0.00 0.00 59 1016.0
20260505013452 62 144 0.0 0.0 0.00 0.00 0.00 60 1015.0
20260505012952 62 148 0.0 0.0 0.00 0.00 0.00 59 1015.0
20260505012452 63 147 0.0 0.0 0.00 0.00 0.00 59 1015.0
20260505011952 63 148 0.0 0.0 0.00 0.00 0.00 59 1015.0
20260505011453 63 148 0.0 0.0 0.00 0.00 0.00 58 1015.0
20260505010952 64 149 0.0 0.0 0.00 0.00 0.00 57 1015.0
20260505010454 64 148 0.0 0.0 0.00 0.00 0.00 55 1015.0
20260505005955 64 148 0.0 0.0 0.00 0.00 0.00 55 1015.0
20260505005454 65 148 0.0 0.0 0.00 0.00 0.00 52 1015.0
20260505004952 65 148 0.0 0.0 0.00 0.00 0.00 50 1015.0
20260505004453 66 148 0.0 0.0 0.00 0.00 0.00 51 1015.0
20260505003952 66 143 0.0 0.0 0.00 0.00 0.00 53 1015.0
20260505003452 67 148 0.0 0.0 0.00 0.00 0.00 50 1015.0
20260505002952 67 148 0.0 0.0 0.00 0.00 0.00 48 1015.0
20260505002452 68 147 0.0 0.0 0.00 0.00 0.00 45 1015.0
20260505001952 69 148 0.0 0.0 0.00 0.00 0.00 43 1015.0
20260505001453 69 148 0.0 0.0 0.00 0.00 0.00 44 1015.0
20260505000953 70 145 0.0 0.0 0.00 0.00 0.00 47 1015.0
20260505000454 71 150 0.0 0.0 0.00 0.00 0.00 47 1015.0
20260504182455 81 123 1.0 1.0 0.00 0.00 0.00 27 1017.0
20260504181953 81 154 2.0 2.0 0.00 0.00 0.00 26 1017.0
20260504181453 81 147 2.0 3.0 0.00 0.00 0.00 31 1017.0
20260504180953 80 157 1.0 1.0 0.00 0.00 0.00 29 1017.0
20260504180454 80 148 3.0 3.0 0.00 0.00 0.00 25 1017.0
20260504175953 79 174 5.0 7.0 0.00 0.00 0.00 27 1017.0
20260504175452 80 168 3.0 5.0 0.00 0.00 0.00 27 1017.0
20260504174953 80 150 0.0 2.0 0.00 0.00 0.00 32 1017.0
20260504174453 80 143 1.0 2.0 0.00 0.00 0.00 35 1017.0
20260504173953 80 146 1.0 1.0 0.00 0.00 0.00 28 1017.0
20260504173453 80 236 3.0 3.0 0.00 0.00 0.00 28 1017.0
20260504172952 80 145 1.0 1.0 0.00 0.00 0.00 29 1017.0
20260504172452 79 244 2.0 3.0 0.00 0.00 0.00 26 1017.0
20260504171952 78 145 0.0 1.0 0.00 0.00 0.00 28 1017.0
20260504171453 79 161 1.0 1.0 0.00 0.00 0.00 28 1017.0
20260504170953 78 109 1.0 2.0 0.00 0.00 0.00 30 1017.0
20260504170455 77 150 2.0 3.0 0.00 0.00 0.00 30 1017.0
20260504150955 73 152 0.0 1.0 0.00 0.00 0.00 45 1018.0
20260504150455 73 156 1.0 1.0 0.00 0.00 0.00 47 1018.0
20260504140953 67 148 0.0 1.0 0.00 0.00 0.00 58 1018.0
20260504140456 67 169 0.0 0.0 0.00 0.00 0.00 55 1018.0
20260504130455 56 152 0.0 0.0 0.00 0.00 0.00 79 1018.0
20260504110452 43 150 0.0 0.0 0.00 0.00 0.00 99 1018.0
20260504100452 43 150 0.0 0.0 0.00 0.00 0.00 99 1018.0
20260504081952 44 150 0.0 0.0 0.00 0.00 0.00 99 1017.0
20260504081453 45 150 0.0 0.0 0.00 0.00 0.00 99 1017.0
20260504080953 45 150 0.0 0.0 0.00 0.00 0.00 99 1017.0
20260504080452 45 149 0.0 0.0 0.00 0.00 0.00 99 1017.0
20260504050452 47 146 0.0 0.0 0.00 0.00 0.00 97 1018.0
20260504045952 47 146 0.0 0.0 0.00 0.00 0.00 97 1018.0
20260504045453 48 146 0.0 0.0 0.00 0.00 0.00 97 1018.0
20260504044952 48 146 0.0 0.0 0.00 0.00 0.00 96 1018.0
20260504044453 48 149 0.0 0.0 0.00 0.00 0.00 96 1018.0
20260504043952 48 149 0.0 0.0 0.00 0.00 0.00 95 1018.0
20260504043456 48 149 0.0 0.0 0.00 0.00 0.00 95 1018.0
20260504042952 48 150 0.0 0.0 0.00 0.00 0.00 95 1018.0
20260504042453 48 149 0.0 0.0 0.00 0.00 0.00 94 1018.0
20260504041952 48 149 0.0 0.0 0.00 0.00 0.00 93 1018.0
20260504041454 48 149 0.0 0.0 0.00 0.00 0.00 92 1018.0
20260504040952 49 150 0.0 0.0 0.00 0.00 0.00 91 1018.0
20260504040452 49 149 0.0 0.0 0.00 0.00 0.00 90 1018.0
20260504035952 49 149 0.0 0.0 0.00 0.00 0.00 91 1018.0
20260504035452 49 149 0.0 0.0 0.00 0.00 0.00 91 1018.0
20260504034952 49 149 0.0 0.0 0.00 0.00 0.00 92 1018.0
20260504034452 49 149 0.0 0.0 0.00 0.00 0.00 91 1018.0
20260504033953 49 149 0.0 0.0 0.00 0.00 0.00 91 1018.0
20260504033452 49 149 0.0 0.0 0.00 0.00 0.00 90 1018.0
20260504032952 49 149 0.0 0.0 0.00 0.00 0.00 88 1018.0
20260504032452 50 150 0.0 0.0 0.00 0.00 0.00 86 1018.0
20260504031952 50 151 0.0 0.0 0.00 0.00 0.00 85 1018.0
20260504031453 50 147 0.0 0.0 0.00 0.00 0.00 85 1018.0
20260504030952 50 146 0.0 0.0 0.00 0.00 0.00 86 1018.0
20260504030452 50 146 0.0 0.0 0.00 0.00 0.00 86 1018.0
20260504025954 50 146 0.0 0.0 0.00 0.00 0.00 85 1018.0
20260504025452 50 146 0.0 0.0 0.00 0.00 0.00 84 1018.0
20260504024954 50 146 0.0 0.0 0.00 0.00 0.00 84 1018.0
20260504024452 51 146 0.0 0.0 0.00 0.00 0.00 84 1018.0
20260504023952 51 146 0.0 0.0 0.00 0.00 0.00 85 1018.0
20260504023453 51 146 0.0 0.0 0.00 0.00 0.00 84 1018.0
20260504022952 51 146 0.0 0.0 0.00 0.00 0.00 84 1018.0
20260504022453 51 146 0.0 0.0 0.00 0.00 0.00 82 1018.0
20260504021953 51 146 0.0 0.0 0.00 0.00 0.00 82 1017.0
20260504021452 51 146 0.0 0.0 0.00 0.00 0.00 81 1017.0
20260504020953 51 146 0.0 0.0 0.00 0.00 0.00 81 1017.0
20260504020453 52 146 0.0 0.0 0.00 0.00 0.00 81 1017.0
20260504015957 52 146 0.0 0.0 0.00 0.00 0.00 79 1017.0
20260504015452 52 146 0.0 0.0 0.00 0.00 0.00 78 1017.0
20260504014952 53 146 0.0 0.0 0.00 0.00 0.00 76 1017.0
20260504014452 53 146 0.0 0.0 0.00 0.00 0.00 77 1017.0